Showing default

NAVSTAR 74 (USA 262), 40730

Orbit data source: Space-Track

NAVSTAR 74 (USA 262), 40730 is a payload satellite owned by USAF SMC (US) in MEO that was launched on Wed, 15 Jul 2015 UTC via an ATLAS V 401 launch vehicle from the Air Force Eastern Test Range (AFETR). Payload-class satellites include a variety of spacecraft equipped with specific instruments for various scientific and technological missions. These include communications satellites like Starlink; space stations such as the ISS; scientific satellites like the Hubble; Earth observation satellites from companies like Planet Labs, Umbra, and HawkEye 360; GPS; miniature CubeSats for education and research; and military/defense satellites.

Loading next visibility...
Identifier
40730, 2015-033A
Orbit
MEO
Country
Flag of USUS
Related business
Manufacturer
Boeing/ES
Mission
Operational Defense Navigation
Bus & Motor
GPS IIF, AOCS
Mass
1,630 kg wet, ~1,500 kg dry
Launch date (UTC)
2015-07-15 (11 years ago)
Launch vehicle
ATLAS V 401
Launch site
Air Force Eastern Test Range (AFETR)
Object type
Payload
Rocket body
Debris
Shape & HBR
Box + 2 Pan, 9.0 m
Radar Cross Section
13.960 m², Large (>1 m²)

Expand to show TLE details & history
Last TLE update: 2 days ago

TLE from 2 days ago
0 NAVSTAR 74 (USA 262)
1 40730U 15033A   26102.90549698  .00000000  00000-0  00000+0 0  9996
2 40730  54.0353 269.7761 0114982  29.7137 330.9159  2.00559570 78680
Epoch: 2026-04-12T21:43Z
TLE epoch observation values (Epoch: 2026-04-12T21:43:54.939Z)
Latitude
-0.00001°
Longitude
102.68688°
Altitude
19,917.034 km
Speed
3.913 km/s
True Right ascension
17h 59m 04s
True Declination
0° 00' 00"
Sunlit
Object was in daylight at epoch
Visualization orbit readout
Latitude
Unknown
Longitude
Unknown
Altitude
Unknown
Speed
Unknown
Apparent Right ascension
Unknown
Apparent Declination
Unknown
Sunlit
N/A
Visualization observer readout
Local Sidereal Time
21:06:02
Azimuth
Unknown
Elevation
Unknown
Doppler factor
Unknown
Orbital elements
Apogee altitude
20,488.013 km
Perigee altitude
19,877.211 km
Semi-major axis
26,560.749 km
Eccentricity
0.0115
Inclination
54.0353°
RAAN
269.7761°
Arg. of periapsis
29.7137°
True anomaly
330.2673°
Mean anomaly
330.9159°
Eccentric anomaly
330.59242°
Mean motion
0.5014 °/min
Orbital period
717.99 mins
BSTAR
0
Loading maneuver chart data...
Computing Atmospheric mass density...
Loading historical data...
Loading historical data...
Loading historical data...
Loading historical data...
Loading historical data...
Loading historical data...
Loading historical data...
Other satellites on launch #33 in the year 2015 (2015-07-15 UTC)

Documentation

Showing up to 5 results
|